Regional Weather Roundup
Issued by NWS Upton, NY

Home | Current Version | Previous Version | Text Only | Print | Product List | Glossary On
Versions: 1 2 3 4 5 6 7 8 9 10 11 12 13 14 15 16 17 18 19 20 21 22 23 24 25 26 27 28 29 30 31 32 33 34 35 36 37 38 39 40 41 42 43 44 45 46 47 48 49 50
000
ASUS41 KOKX 301505
RWROKX

REGIONAL WEATHER ROUNDUP
NATIONAL WEATHER SERVICE NEW YORK NY
1000 AM EST FRI JAN 30 2015

NOTE: "FAIR" INDICATES FEW OR NO CLOUDS BELOW 12,000 FEET WITH NO
SIGNIFICANT WEATHER AND/OR OBSTRUCTIONS TO VISIBILITY.

NYZ071-072-176-178-NJZ106-104-301600-
NEW YORK CITY METRO AREA


CITY           SKY/WX    TMP DP  RH WIND       PRES   REMARKS
CENTRAL PARK   CLOUDY    32  26  78 VRB5      29.89S HAZE    WCI  27
LAGUARDIA APRT CLOUDY    32  26  78 NW16      29.86F WCI  21
KENNEDY INTL   CLOUDY    34  26  72 NW15G21   29.87F WCI  24
NEWARK/LIBERTY CLOUDY    32  28  85 W10       29.88F WCI  24
BRNX BOT. GARD   N/A    N/A N/A N/A W13       29.87R
TETERBORO      FLURRIES  32  26  78 NW9       29.87F WCI  24
$$

NYZ177-179-078>081-301600-
LONG ISLAND NEW YORK

CITY           SKY/WX    TMP DP  RH WIND       PRES   REMARKS
FARMINGDALE    CLOUDY    32  27  81 NW13G18   29.84F WCI  22
ISLIP          LGT SNOW  32  29  88 NW13      29.82S FOG     WCI  22
SHIRLEY        LGT SNOW  32  29  88 NW10      29.84S FOG     WCI  24
WESTHAMPTON    LGT SNOW  33  30  88 NW9       29.84S FOG     WCI  25
MONTAUK POINT    N/A     34  33  96 NW5       29.81F WCI  30
$$

NYZ052-065-067-301600-
HUDSON VALLEY

CITY           SKY/WX    TMP DP  RH WIND       PRES   REMARKS
WHITE PLAINS   LGT SNOW  29  26  89 NW12      29.83S FOG     WCI  19
NEWBURGH       LGT SNOW  27  27 100 W9        29.86R WCI  17
MONTGOMERY     LGT SNOW  29  26  89 SW6       29.85S FOG     WCI  23
POUGHKEEPSIE   LGT SNOW  30  25  81 SW6       29.86R WCI  24
ALBANY         SNOW      29  26  89 W5        29.84F VSB 1/2 WCI  24
$$

NJZ001-105-106-008-010-013-015-019>022-104-301600-
NEW JERSEY

CITY           SKY/WX    TMP DP  RH WIND       PRES   REMARKS
NEWARK/LIBERTY CLOUDY    32  28  85 W10       29.88F WCI  24
TETERBORO      FLURRIES  32  26  78 NW9       29.87F WCI  24
CALDWELL       CLOUDY    31  25  78 W6        29.88S WCI  25
MORRISTOWN     CLOUDY    32  25  74 NW6       29.89R WCI  26
SOMERVILLE     CLOUDY    33  25  72 VRB3      29.89R
SUSSEX         LGT SNOW  31  25  78 CALM      29.87R
ANDOVER          N/A     30  25  81 CALM      29.88R
TRENTON        CLOUDY    34  25  69 NW8       29.90S WCI  27
MILLVILLE      CLOUDY    37  26  64 NW14G25   29.93R WCI  28
ATLANTIC CITY  SUNNY     38  26  62 NW23      29.90S WCI  27
WRIGHTSTOWN    FLURRIES  34  27  75 NW13G18   29.89R WCI  25
TOMS RIVER     CLOUDY    36  27  69 NW18      29.89S WCI  25
BELMAR         CLOUDY    34  23  64 NW14      29.87S WCI  24
$$

PAZ047>061-062-071-301600-
EASTERN PENNSYLVANIA

CITY           SKY/WX    TMP DP  RH WIND       PRES   REMARKS
PHILADELPHIA   FLURRIES  37  26  64 W17G24    29.94S WCI  27
ALLENTOWN      FLURRIES  33  26  75 W9        29.91R WCI  25
SCRANTON       LGT SNOW  29  24  82 W6        29.90R WCI  23
$$

CTZ002-004>006-009-010-012-RIZ004-006-007-MAZ004-011-015-301600-
SOUTHERN NEW ENGLAND
 IN CT

CITY           SKY/WX    TMP DP  RH WIND       PRES   REMARKS
BRADLEY INTL   LGT SNOW  31  27  85 W6        29.81S FOG     WCI  25
HARTFORD       LGT SNOW  32  27  81 W10       29.83R WCI  24
DANBURY        LGT SNOW  29  24  82 W6        29.85S VSB 3/4 WCI  23
WTRBRY/OXFORD  LGT SNOW  28  21  74 CALM      29.82R VSB 1
BRIDGEPORT     LGT SNOW  31  30  96 NW10      29.84F FOG     WCI  22
MERIDEN        LGT SNOW  31  27  85 NW7       29.84R FOG     WCI  24
NEW HAVEN      LGT SNOW  32  30  92 NW9       29.83S FOG     WCI  24
CHESTER        SNOW      32  30  93 NW5       29.81R VSB 1/2 WCI  27
GROTON         LGT SNOW  32  32 100 NW6       29.80F VSB 3/4 WCI  26
WILLIMANTIC    LGT SNOW  32  29  88 CALM      29.81S VSB 3/4

 IN RI

CITY           SKY/WX    TMP DP  RH WIND       PRES   REMARKS
PROVIDENCE     LGT SNOW  32  31  96 SW3       29.80F VSB 3/4
BLOCK ISLAND   CLOUDY    34  28  80 NW6       29.79F WCI  29
WESTERLY       SNOW      34  33  96 CALM      29.81F VSB 1/2

 IN MA

CITY           SKY/WX    TMP DP  RH WIND       PRES   REMARKS
BOSTON         LGT SNOW  34  30  86 SW7       29.81F FOG     WCI  28
WORCESTER      LGT SNOW  29  27  92 W6        29.75F FOG     WCI  23
WESTFIELD      LGT SNOW  29  27  92 CALM      29.80S FOG
PROVINCETOWN   NOT AVBL
NANTUCKET      LGT RAIN  39  38  96 E6        29.79F FOG     WCI  35
$$

ANZ330-335-338-340-345-350-353-355-301600-
COASTAL MARINE OBSERVATIONS


STATION/POSITION TIME  SKY/WX   TEMP    WIND        PRES    VSBY  WAVE
                                AIR SEA DIR/SP/G                  HT/PER
                 (UTC)          (F)     (DEG/KT/KT) (MB)    (MI)  (FT/S)
NY HARB ENTRANCE 1500            33 40  290/ 17/ 23 1010.4          3/ 6
4S FIRE IS       1500               37                N/A           4/ 6
20S FIRE ISLAND  1400               42              1010.7          4/ 6
23SW MTP         1500                                 N/A           4/ 6
HUDSON CANYON    NOT AVBL
EXECUTION ROCKS  1500            32 33  300/ 10/ 17   N/A
WESTERN LI SOUND 1500            31     290/  8/ 12   N/A           0
CENTRAL LI SOUND 1400            32 35  300/ 12/ 14   N/A           0
EASTERN LI SOUND NOT AVBL
ROBBINS REEF     1500            32     300/ 12/ 15 1010.5
$$


>>>>>>>>>>>>>>>>>>>>>>>>>>>> KEY <<<<<<<<<<<<<<<<<<<<<<<<<<<
>                                                          <
>     SKY/WX - SKY CONDITION/PRESENT WEATHER               <
>     TMP    - TEMPERATURE IN FAHRENHEIT                   <
>     DP     - DEWPOINT IN FAHRENHEIT                      <
>     RH     - RELATIVE HUMIDITY IN PERCENT                <
>     WIND   - DIRECTION AND SPEED IN MPH                  <
>     PRES   - MEAN SEA LEVEL PRESSURE IN INCHES OF HG     <
>     WCI    - WIND CHILL INDEX                            <
>     VSB    - VISIBILITY IN MILES                         <
>     HX     - HEAT INDEX                                  <
>     TC     - TEMPERATURE IN CELSIUS                      <
>     VRB    - VARIABLE WIND DIRECTION                     <
>                                                          <
>>>>>>>>>>>>>>>>>>>>>>>>>>>> KEY <<<<<<<<<<<<<<<<<<<<<<<<<<<




USA.gov is the U.S. government's official web portal to all federal, state and local government web resources and services.